This is the latest recevied weather packets stored in our database for station/object KD7JB. If no packets are shown the sender has not sent any weather packets the latest 1 day(s).
| Time | Temp. | Humidity | Pressure | Rain* | Wind** | Luminosity | Snow |
|---|---|---|---|---|---|---|---|
| 1778006618 | 18.33° C | 46% | 1175.7 hPa | 0 mm | 1.79 m/s, 12° | 723 W/m² | - |
| 1778006315 | 18.33° C | 44% | 1175.6 hPa | 0 mm | 1.79 m/s, 354° | 720 W/m² | - |
| 1778006012 | 17.78° C | 47% | 1175.7 hPa | 0 mm | 1.34 m/s, 18° | 716 W/m² | - |
| 1778005709 | 17.78° C | 46% | 1175.6 hPa | 0 mm | 1.79 m/s, 339° | 711 W/m² | - |
| 1778005406 | 17.78° C | 45% | 1175.6 hPa | 0 mm | 0 m/s | 705 W/m² | - |
| 1778005102 | 17.78° C | 48% | 1175.7 hPa | 0 mm | 1.79 m/s, 341° | 700 W/m² | - |
| 1778004800 | 17.78° C | 47% | 1175.6 hPa | 0 mm | 0.89 m/s, 23° | 693 W/m² | - |
| 1778004496 | 17.22° C | 46% | 1175.5 hPa | 0 mm | 1.34 m/s, 28° | 688 W/m² | - |
| 1778004193 | 17.22° C | 48% | 1175.6 hPa | 0 mm | 1.79 m/s, 24° | 680 W/m² | - |
| 1778003889 | 17.22° C | 48% | 1175.5 hPa | 0 mm | 1.79 m/s, 0° | 673 W/m² | - |
| 1778003586 | 17.22° C | 47% | 1175.6 hPa | 0 mm | 2.68 m/s, 31° | 665 W/m² | - |
| 1778003282 | 17.22° C | 47% | 1175.5 hPa | 0 mm | 2.68 m/s, 359° | 656 W/m² | - |
| 1778002980 | 17.22° C | 46% | 1175.5 hPa | 0 mm | 0.45 m/s, 357° | 648 W/m² | - |
| 1778002675 | 17.22° C | 47% | 1175.7 hPa | 0 mm | 2.24 m/s, 349° | 639 W/m² | - |
| 1778002372 | 16.67° C | 49% | 1175.6 hPa | 0 mm | 0.45 m/s, 30° | 631 W/m² | - |
| 1778002069 | 17.22° C | 47% | 1175.6 hPa | 0 mm | 1.79 m/s, 6° | 620 W/m² | - |
| 1778001766 | 17.22° C | 44% | 1175.6 hPa | 0 mm | 0.89 m/s, 32° | 611 W/m² | - |
| 1778001466 | 17.22° C | 46% | 1175.5 hPa | 0 mm | 0 m/s | 602 W/m² | - |
| 1778001163 | 16.67° C | 48% | 1175.5 hPa | 0 mm | 1.79 m/s, 9° | 590 W/m² | - |
| 1778000860 | 16.67° C | 50% | 1175.5 hPa | 0 mm | 0.89 m/s, 31° | 580 W/m² | - |
| 1778000558 | 16.11° C | 50% | 1175.7 hPa | 0 mm | 1.79 m/s, 346° | 568 W/m² | - |
| 1778000258 | 16.11° C | 51% | 1175.4 hPa | 0 mm | 2.68 m/s, 78° | 557 W/m² | - |
| 1777999954 | 16.11° C | 51% | 1175.6 hPa | 0 mm | 1.79 m/s, 19° | 546 W/m² | - |
| 1777999650 | 16.11° C | 50% | 1175.4 hPa | 0 mm | 2.24 m/s, 352° | 535 W/m² | - |
| 1777999347 | 15.56° C | 49% | 1175.5 hPa | 0 mm | 1.79 m/s, 8° | 522 W/m² | - |
* Rain latest hour (hover to see other rain measurements)
** Current wind speed in m/s (hover to see current wind gust speed)